*** The Vicarage Weather Feed ***

NOAA NWS Hourly Roundups by Site

Regional Weather Roundup for Omaha, NE

To Select Another Site Choose from List

Select Site:  

352
ASUS43 KOAX 011210
RWRNE

WEATHER ROUNDUP FOR NEBRASKA
NATIONAL WEATHER SERVICE OMAHA NE
700 AM CDT THU OCT 01 2020

NOTES: SATELLITE DATA IS BEING USED TO AUGMENT CLOUD COVER ABOVE
       12000 FEET.
       "FAIR" INDICATES FEW OR NO CLOUDS BELOW 12,000 FEET WITH NO
       SIGNIFICANT WEATHER AND/OR OBSTRUCTIONS TO VISIBILITY.


NEZ001>004-019>022-054>056-011300-
NEBRASKA PANHANDLE

CITY           SKY/WX    TMP DP  RH WIND       PRES   REMARKS
SCOTTSBLUFF    CLEAR     34  27  75 NW5       30.46R WCI  30
6HR MIN TEMP:  34; 6HR MAX TEMP:  50;

ALLIANCE       CLEAR     35  21  56 MISG      30.44R
6HR MIN TEMP:  33; 6HR MAX TEMP:  52;

CHADRON        CLEAR     30  21  69 SW5       30.46R WCI  25
6HR MIN TEMP:  28; 6HR MAX TEMP:  47;

GORDON         FAIR      32  23  68 NW7       30.43R WCI  26
6HR MIN TEMP:  32; 6HR MAX TEMP:  46;

KIMBALL        CLEAR     37  23  58 NW8       30.46S WCI  30
SIDNEY         CLEAR     44  21  40 N14       30.44R
6HR MIN TEMP:  36; 6HR MAX TEMP:  47;

$$

NEZ057>060-069>072-079>082-011300-
SOUTHWEST NEBRASKA

CITY           SKY/WX    TMP DP  RH WIND       PRES   REMARKS
NORTH PLATTE   CLEAR     35  23  61 NW6       30.41R WCI  30
6HR MIN TEMP:  35; 6HR MAX TEMP:  55;

IMPERIAL       CLEAR     41  24  51 NW8       30.43R
6HR MIN TEMP:  39; 6HR MAX TEMP:  46;

LEXINGTON      CLEAR     39  26  59 W9        30.39R WCI  33
MCCOOK         CLEAR     46  26  45 N8        30.41R
6HR MIN TEMP:  38; 6HR MAX TEMP:  46;

OGALLALA       CLEAR     39  26  58 NW6       30.44R WCI  35
$$

NEZ005>010-023>029-035>040-094-011300-
NORTH CENTRAL NEBRASKA

CITY           SKY/WX    TMP DP  RH WIND       PRES   REMARKS
VALENTINE      CLEAR     35  25  66 W8        30.40R WCI  29
6HR MIN TEMP:  34; 6HR MAX TEMP:  46;

AINSWORTH      CLEAR     35  28  76 W6        30.38R WCI  30
BROKEN BOW     CLEAR     43  27  53 NW12      30.36R
6HR MIN TEMP:  43; 6HR MAX TEMP:  51;

O`NEILL        CLEAR     39  30  70 NW8       30.34R WCI  33
ORD            CLEAR     38  29  70 NW8       30.34R WCI  32
6HR MIN TEMP:  35; 6HR MAX TEMP:  45;

THEDFORD       CLEAR     32  26  77 W5        30.41R WCI  27
$$

NEZ041-046>049-061>064-073>077-083>087-011300-
SOUTH CENTRAL NEBRASKA

CITY           SKY/WX    TMP DP  RH WIND       PRES   REMARKS
GRAND ISLAND   CLEAR     42  28  57 NW10      30.34R
6HR MIN TEMP:  41; 6HR MAX TEMP:  48;

AURORA         CLEAR     43  31  63 NW8       30.32R
HASTINGS       CLEAR     43  28  55 NW10      30.34R
6HR MIN TEMP:  42; 6HR MAX TEMP:  51;

HEBRON         CLEAR     46  31  56 NW8       30.31R
HOLDREGE       CLEAR     42  27  56 NW6       30.37R
KEARNEY        CLEAR     40  27  59 W9        30.36R WCI  34
YORK           CLEAR     43  30  61 NW12      30.30R
$$

NEZ011>018-030>034-042>045-011300-
NORTHEAST NEBRASKA

CITY           SKY/WX    TMP DP  RH WIND       PRES   REMARKS
NORFOLK        CLEAR     43  30  60 NW13      30.28R
6HR MIN TEMP:  42; 6HR MAX TEMP:  48;

ALBION         CLEAR     38  30  74 NW7       30.32R WCI  32
BLAIR          CLEAR     46  32  59 NW8       30.22R
COLUMBUS       CLEAR     40  31  70 W9        30.30R WCI  34
FREMONT        CLEAR     46  32  58 W9        30.25R
TEKAMAH        CLEAR     47  32  56 NW10      30.23R
6HR MIN TEMP:  47; 6HR MAX TEMP:  51;

WAYNE          CLEAR     43  33  66 NW9       30.27R
$$

NEZ050>053-065>068-078-088>093-011300-
SOUTHEAST NEBRASKA

CITY           SKY/WX    TMP DP  RH WIND       PRES   REMARKS
LINCOLN        CLEAR     46  30  53 NW13      30.28R
6HR MIN TEMP:  40; 6HR MAX TEMP:  49;

OMAHA EPPLEY   CLEAR     51  32  48 NW17G25   30.21R
6HR MIN TEMP:  44; 6HR MAX TEMP:  53;

BEATRICE       CLEAR     43  32  64 NW13      30.27R
FALLS CITY     CLEAR     42  33  70 W10       30.21R
6HR MIN TEMP:  38; 6HR MAX TEMP:  48;

NEBRASKA CITY  CLEAR     47  32  56 NW10      30.23R
PLATTSMOUTH    CLEAR     43  33  67 NW8       30.22R
$$

NEZ044-045-051>053-067-011300-
OMAHA AREA

CITY           SKY/WX    TMP DP  RH WIND       PRES   REMARKS
OMAHA EPPLEY   CLEAR     51  32  48 NW17G25   30.21R
6HR MIN TEMP:  44; 6HR MAX TEMP:  53;

BLAIR          CLEAR     46  32  59 NW8       30.22R
FREMONT        CLEAR     46  32  58 W9        30.25R
MILLARD        CLEAR     49  32  51 NW8G16    30.23R
OFFUTT AFB     CLEAR     50  32  50 NW16G22   30.21R
PLATTSMOUTH    CLEAR     43  33  67 NW8       30.22R
WAHOO          FAIR      47  32  56 NW10      30.25R
$$



 

View Past Reports for Omaha, NE.

Products Courtesy of NOAA-NWS
NWS Information Parsing Script by Ken True at Saratoga Weather - Script by SE Lincoln Weather.

This data is offered only as a general guide to local weather conditions. It should not be relied upon in lieu of officially disseminated weather information for determining possible risk to persons or property. This site, including all information contained therein, is made available as is without warranties of any kind, either express or implied. The Vicarage Weather Feed© includes links to other sites for user convenience only. The content of any linked third-party site is not controlled by The Vicarage Weather Feed©. Access to any third-party website through The Vicarage Weather Feed©, regardless of whether or not the third-party site is a linked site, is entirely at the users own risk. Externally sourced content or material is excluded from The Vicarage Weather Feed© copyright and is the copyright and property of the respective provider. Skywarn® and the Skywarn® logo are registered trademarks of the National Oceanic and Atmospheric Administration, used with permission.